TimeEST,TemperatureF,Dew PointF,Humidity,Sea Level PressureIn,VisibilityMPH,Wind Direction,Wind SpeedMPH,Gust SpeedMPH,PrecipitationIn,Events,Conditions,WindDirDegrees,DateUTC
12:53 AM,34.0,10.0,37,30.28,10.0,South,6.9,-,N/A,,Overcast,180,2013-11-26 05:53:00
1:53 AM,35.1,10.9,37,30.28,10.0,South,4.6,-,N/A,,Overcast,170,2013-11-26 06:53:00
2:53 AM,35.1,12.9,40,30.27,10.0,South,5.8,-,N/A,,Overcast,180,2013-11-26 07:53:00
3:53 AM,35.1,18.0,50,30.25,10.0,South,3.5,-,N/A,,Overcast,180,2013-11-26 08:53:00
4:53 AM,35.1,17.1,48,30.26,10.0,Calm,Calm,-,N/A,,Overcast,0,2013-11-26 09:53:00
5:53 AM,35.1,18.0,50,30.25,10.0,SE,4.6,-,N/A,,Overcast,140,2013-11-26 10:53:00
6:53 AM,35.1,17.1,48,30.25,10.0,SE,4.6,-,N/A,,Overcast,140,2013-11-26 11:53:00
7:53 AM,35.1,21.0,57,30.26,10.0,SE,4.6,-,0.00,Rain,Light Rain,130,2013-11-26 12:53:00
8:53 AM,33.1,27.0,78,30.25,6.0,East,4.6,-,0.02,Rain,Light Rain,100,2013-11-26 13:53:00
9:07 AM,32.0,28.0,85,30.23,5.0,East,4.6,-,0.01,,Overcast,90,2013-11-26 14:07:00
9:53 AM,32.0,28.9,88,30.25,4.0,ESE,4.6,-,0.05,,Overcast,110,2013-11-26 14:53:00
10:53 AM,32.0,28.9,88,30.22,4.0,ENE,3.5,-,0.05,,Overcast,70,2013-11-26 15:53:00
11:10 AM,33.1,28.9,85,30.19,5.0,ENE,4.6,-,0.01,,Overcast,70,2013-11-26 16:10:00
11:42 AM,33.1,30.0,89,30.17,6.0,ESE,3.5,-,0.02,Rain,Light Rain,120,2013-11-26 16:42:00
11:53 AM,33.1,30.0,89,30.18,5.0,East,5.8,-,0.03,Rain,Light Rain,100,2013-11-26 16:53:00
12:07 PM,33.1,30.0,89,30.16,6.0,ESE,3.5,-,0.00,Rain,Light Rain,110,2013-11-26 17:07:00
12:20 PM,33.1,30.0,89,30.16,4.0,ESE,3.5,-,0.00,Rain,Light Rain,110,2013-11-26 17:20:00
12:53 PM,33.1,30.0,89,30.15,4.0,Variable,4.6,-,0.02,Rain,Light Rain,0,2013-11-26 17:53:00
1:53 PM,33.1,30.9,92,30.11,4.0,East,3.5,-,0.03,Rain,Light Rain,80,2013-11-26 18:53:00
2:30 PM,33.1,30.9,92,30.08,3.0,East,4.6,-,0.01,Rain,Light Rain,90,2013-11-26 19:30:00
2:53 PM,33.1,30.9,92,30.09,4.0,East,6.9,-,0.02,Rain,Light Rain,90,2013-11-26 19:53:00
3:23 PM,33.1,30.9,92,30.05,4.0,East,4.6,-,0.02,Rain,Light Rain,90,2013-11-26 20:23:00
3:39 PM,33.1,30.9,92,30.05,3.0,East,4.6,-,0.03,Rain,Light Rain,90,2013-11-26 20:39:00
3:53 PM,33.1,30.9,92,30.06,3.0,Variable,4.6,-,0.04,Rain,Light Rain,0,2013-11-26 20:53:00
4:15 PM,33.1,30.9,92,30.04,2.5,ENE,4.6,-,0.05,Rain,Rain,70,2013-11-26 21:15:00
4:22 PM,33.1,30.9,92,30.05,3.0,East,3.5,-,0.07,Rain,Rain,80,2013-11-26 21:22:00
4:53 PM,33.1,30.9,92,30.04,4.0,NE,4.6,-,0.14,Rain,Rain,40,2013-11-26 21:53:00
5:05 PM,33.1,30.9,92,30.01,4.0,NE,4.6,-,0.03,Rain,Rain,40,2013-11-26 22:05:00
5:37 PM,33.1,30.9,92,30.00,3.0,NNE,5.8,-,0.10,Rain,Rain,30,2013-11-26 22:37:00
5:45 PM,33.1,30.9,92,30.00,3.0,NNE,5.8,-,0.11,Rain,Rain,20,2013-11-26 22:45:00
5:53 PM,33.1,30.9,92,30.01,3.0,NNE,5.8,-,0.13,Rain,Rain,30,2013-11-26 22:53:00
6:12 PM,33.1,30.9,92,29.96,3.0,NNE,6.9,-,0.04,Rain,Rain,30,2013-11-26 23:12:00
6:48 PM,33.8,30.2,87,29.92,3.0,North,6.9,-,0.12,Rain,Rain,10,2013-11-26 23:48:00
6:53 PM,33.1,30.9,92,29.93,3.0,NNE,8.1,-,0.13,Rain,Rain,20,2013-11-26 23:53:00
7:12 PM,33.1,30.9,92,29.89,2.5,NNE,10.4,-,0.03,Rain,Rain,20,2013-11-27 00:12:00
7:41 PM,33.1,30.9,92,29.84,3.0,NNE,11.5,-,0.09,Rain,Rain,20,2013-11-27 00:41:00
7:51 PM,33.8,30.2,87,29.83,2.5,North,12.7,-,0.12,Rain,Rain,10,2013-11-27 00:51:00
7:53 PM,33.1,30.9,92,29.84,2.5,North,11.5,-,0.13,Rain,Rain,10,2013-11-27 00:53:00
8:21 PM,33.1,30.9,92,29.81,3.0,North,12.7,-,0.09,Rain,Rain,360,2013-11-27 01:21:00
8:35 PM,33.1,30.9,92,29.81,2.5,North,8.1,-,0.14,Rain,Rain,350,2013-11-27 01:35:00
8:53 PM,34.0,30.9,89,29.83,2.5,NNW,10.4,-,0.20,Rain,Rain,330,2013-11-27 01:53:00
9:12 PM,34.0,32.0,92,29.78,2.5,North,6.9,-,0.07,Rain,Rain,350,2013-11-27 02:12:00
9:22 PM,34.0,32.0,92,29.77,3.0,NNW,5.8,-,0.10,Rain,Rain,340,2013-11-27 02:22:00
9:33 PM,34.0,32.0,92,29.77,3.0,NW,3.5,-,0.13,Rain,Rain,320,2013-11-27 02:33:00
9:53 PM,34.0,32.0,92,29.79,3.0,WNW,4.6,-,0.19,Rain,Rain,300,2013-11-27 02:53:00
9:58 PM,34.0,32.0,92,29.77,2.5,NW,4.6,-,0.01,Rain,Rain,310,2013-11-27 02:58:00
10:15 PM,35.1,33.1,92,29.76,3.0,NNW,4.6,-,0.04,Rain,Light Rain,330,2013-11-27 03:15:00
10:17 PM,35.1,33.1,92,29.76,3.0,NNW,4.6,-,0.04,Rain,Light Rain,330,2013-11-27 03:17:00
10:22 PM,35.1,33.1,92,29.76,2.5,NNW,4.6,-,0.05,Rain,Light Rain,330,2013-11-27 03:22:00
10:37 PM,35.1,32.0,89,29.72,3.0,NE,8.1,-,0.08,Rain,Rain,40,2013-11-27 03:37:00
10:53 PM,35.1,32.0,89,29.72,4.0,NNE,9.2,-,0.10,Rain,Light Rain,30,2013-11-27 03:53:00
11:23 PM,34.0,32.0,92,29.68,2.5,NNE,9.2,-,0.05,Rain,Light Rain,30,2013-11-27 04:23:00
11:27 PM,34.0,32.0,92,29.68,3.0,NNE,8.1,-,0.05,Rain,Light Rain,30,2013-11-27 04:27:00
11:40 PM,34.0,32.0,92,29.66,2.5,NE,8.1,-,0.07,Rain,Light Rain,40,2013-11-27 04:40:00
11:43 PM,34.0,32.0,92,29.66,3.0,NE,5.8,-,0.07,Rain,Light Rain,40,2013-11-27 04:43:00
11:53 PM,34.0,32.0,92,29.66,4.0,NE,5.8,-,0.07,,Overcast,50,2013-11-27 04:53:00